Tracking 18840 objects as of 18-November-2017
HD Live streaming from Space Station
objects crossing your sky now

COSMOS 2418 (GLONASS)

Track COSMOS 2418 (GLONASS) now!
COSMOS 2418 (GLONASS) is classified as:


NORAD ID: 28916
Int'l Code: 2005-050B
Perigee: 19,100.8 km
Apogee: 19,172.9 km
Inclination: 65.6 °
Period: 675.7 minutes
Semi major axis: 25507 km
RCS: 3.9905 m2 (large)
Launch date: December 25, 2005
Source: Commonwealth of Independent States (former USSR) (CIS)
Launch site: TYURATAM MISSILE AND SPACE COMPLEX (TTMTR)
SV:
aabbcc
Your satellite tracking list
Your tracking list is empty




NASA's NSSDC Master Catalog

Two Line Element Set (TLE):
1 28916U 05050B   17321.48338339 -.00000064 +00000-0 +00000-0 0  9992
2 28916 065.5889 060.7917 0014126 322.7904 037.1163 02.13104529092571
Source of the keplerian elements: AFSPC